Sisseton, SD

11:36 PM CDT on March 28, 2017 (GMT -0500)
Sisseton

Weather History for K8D3 - August, 2013

Change the Weather History Date:

Sunday, August 25, 2013

  Actual Average Record
Temperature  
Mean Temperature 85 °F 68 °F  
Max Temperature 94 °F 79 °F 98 °F (1983)
Min Temperature 76 °F 56 °F 42 °F (1950)
Degree Days  
Heating Degree Days 0 1  
Month to date heating degree days 23 16  
Since 1 June heating degree days 118 91  
Since 1 July heating degree days 49 29  
Cooling Degree Days 20 4  
Month to date cooling degree days 103 135  
Year to date cooling degree days 451 457  
Since 1 June cooling degree days 426 434  
Growing Degree Days 34 (Base 50)    
Moisture  
Dew Point 72 °F    
Average Humidity 70    
Maximum Humidity 91    
Minimum Humidity 49    
Precipitation  
Precipitation 0.00 in 0.08 in 1.25 in (1960)
Month to date precipitation 0.64 1.94  
Year to date precipitation 18.36 16.24  
Sea Level Pressure  
Sea Level Pressure 29.80 in    
Wind  
Wind Speed 7 mph (WSW)    
Max Wind Speed 23 mph    
Max Gust Speed 35 mph    
T = Trace of Precipitation, MM = Missing Value Source: NWS Daily Summary

Daily Weather History Graph

Daily Weather History Graph

Search for Another Location

Airport or City:

Trip Planner

Search our weather history database for the weather conditions in past years. The results will help you decide how hot, cold, wet, or windy it might be!

Date:

Astronomy

Aug. 25, 2013 Rise Set
Actual Time 6:40 AM CDT 8:18 PM CDT
Civil Twilight 6:09 AM CDT 8:49 PM CDT
Nautical Twilight 5:31 AM CDT 9:27 PM CDT
Astronomical Twilight 4:50 AM CDT 10:08 PM CDT
Moon 10:30 PM CDT (8/25) 12:02 PM CDT (8/25)
Length of Visible Light 14h 39m
Length of Day
13h 37m
Waning Gibbous, 75% of the Moon is Illuminated
Aug 25
Waning Gibbous
Aug 28
Last Quarter
Sep 5
New
Sep 12
First Quarter
Sep 19
Full

Hourly Weather History & Observations

Time (CDT) Temp. Heat Index Dew Point Humidity Pressure Visibility Wind Dir Wind Speed Gust Speed Precip Events Conditions
12:56 AM 82.9 °F 88.8 °F 73.0 °F 72% 29.73 in - WSW 18.4 mph 31.1 mph N/A   Unknown
1:56 AM 82.0 °F 86.7 °F 72.0 °F 71% 29.74 in - SW 19.6 mph 28.8 mph N/A   Unknown
2:56 AM 82.0 °F 86.3 °F 71.1 °F 69% 29.74 in - WSW 19.6 mph 34.5 mph N/A   Unknown
3:56 AM 81.0 °F 84.4 °F 70.0 °F 69% 29.75 in - WSW 13.8 mph 25.3 mph N/A   Unknown
4:56 AM 80.1 °F 83.2 °F 70.0 °F 71% 29.77 in - SW 9.2 mph - N/A   Unknown
5:56 AM 78.1 °F - 69.1 °F 74% 29.80 in - ENE 10.4 mph - N/A   Unknown
6:56 AM 81.0 °F 83.8 °F 68.0 °F 65% 29.81 in - WSW 13.8 mph 20.7 mph N/A   Unknown
7:56 AM 80.1 °F 82.9 °F 69.1 °F 69% 29.81 in - SSW 8.1 mph - N/A   Unknown
8:56 AM 82.0 °F 85.9 °F 70.0 °F 67% 29.81 in - SSW 8.1 mph - N/A   Unknown
9:56 AM 84.9 °F 89.4 °F 70.0 °F 61% 29.81 in - SW 8.1 mph - N/A   Unknown
10:56 AM 87.1 °F 92.8 °F 71.1 °F 59% 29.81 in - SW 10.4 mph - N/A   Unknown
11:56 AM 89.1 °F 95.0 °F 71.1 °F 55% 29.81 in - WSW 8.1 mph - N/A   Unknown
12:56 PM 91.0 °F 96.6 °F 70.0 °F 50% 29.80 in - West 4.6 mph - N/A   Unknown
1:56 PM 91.0 °F 97.6 °F 71.1 °F 52% 29.80 in - Variable 5.8 mph - N/A   Unknown
2:56 PM 91.0 °F 97.6 °F 71.1 °F 52% 29.79 in - WSW 4.6 mph - N/A   Unknown
3:56 PM 91.0 °F 97.6 °F 71.1 °F 52% 29.79 in - WSW 9.2 mph - N/A   Unknown
4:56 PM 91.9 °F 99.5 °F 72.0 °F 52% 29.80 in - WNW 9.2 mph - N/A   Unknown
5:56 PM 91.9 °F 100.7 °F 73.0 °F 54% 29.78 in - Calm Calm - N/A   Unknown
6:56 PM 87.1 °F 96.3 °F 75.0 °F 67% 29.80 in - North 4.6 mph - N/A   Unknown
7:56 PM 82.0 °F 89.4 °F 75.9 °F 82% 29.81 in - Calm Calm - N/A   Unknown
8:56 PM 79.0 °F - 75.0 °F 88% 29.83 in - Calm Calm - N/A   Unknown
9:56 PM 77.0 °F - 73.9 °F 90% 29.84 in - Calm Calm - N/A   Unknown
10:56 PM 78.1 °F - 73.9 °F 87% 29.85 in - Calm Calm - N/A   Unknown
11:56 PM 78.1 °F - 73.9 °F 87% 29.85 in - Calm Calm - N/A   Unknown